SNJ117 RJGG-RJFK

Flight info

Callsign SNJ117
Flight time 1h 8m
Altitude 34000
Route ESPAN KEC Y24 SUC Y757 SPICA
Aircraft B738/M-SDE2E3FGHIRWXY/LB1

Departure

Time 2026-04-28 14:40
Airport Chubu Centrair International Airport (RJGG)

Arrival

Time 2026-04-28 15:48
Airport Kagoshima Airport (RJFK)
Time Latitude Longitude Altitude Speed Heading
2026-04-28 14:17 34.85913 136.81057 -13 ft 0 kts 170°
2026-04-28 14:30 34.85919 136.81056 23 ft 2 kts 168°
2026-04-28 14:30 34.85935 136.81052 23 ft 2 kts 171°
2026-04-28 14:31 34.85951 136.81049 22 ft 2 kts 171°
2026-04-28 14:31 34.85968 136.81046 23 ft 2 kts 173°
2026-04-28 14:31 34.85984 136.81045 22 ft 2 kts 179°
2026-04-28 14:31 34.86001 136.81047 22 ft 2 kts 213°
2026-04-28 14:32 34.86008 136.81058 22 ft 1 kts 256°
2026-04-28 14:32 34.86008 136.81060 23 ft 0 kts 257°
2026-04-28 14:33 34.86008 136.81059 22 ft 1 kts 257°
2026-04-28 14:33 34.86005 136.81038 22 ft 5 kts 258°
2026-04-28 14:34 34.85981 136.80907 23 ft 10 kts 246°
2026-04-28 14:34 34.85921 136.80875 21 ft 10 kts 174°
2026-04-28 14:34 34.85846 136.80890 23 ft 12 kts 168°
2026-04-28 14:35 34.85757 136.80913 21 ft 14 kts 168°
2026-04-28 14:35 34.85661 136.80936 21 ft 14 kts 168°
2026-04-28 14:35 34.85569 136.80958 22 ft 13 kts 169°
2026-04-28 14:35 34.85480 136.80979 21 ft 13 kts 169°
2026-04-28 14:36 34.85394 136.81000 22 ft 12 kts 169°
2026-04-28 14:36 34.85310 136.81020 22 ft 12 kts 169°
2026-04-28 14:36 34.85228 136.81040 21 ft 12 kts 168°
2026-04-28 14:36 34.85148 136.81060 21 ft 12 kts 169°
2026-04-28 14:37 34.85063 136.81080 21 ft 13 kts 168°
2026-04-28 14:37 34.84964 136.81104 21 ft 16 kts 169°
2026-04-28 14:37 34.84849 136.81131 22 ft 18 kts 169°
2026-04-28 14:37 34.84722 136.81161 22 ft 19 kts 168°
2026-04-28 14:38 34.84589 136.81194 21 ft 19 kts 168°
2026-04-28 14:38 34.84460 136.81225 21 ft 19 kts 169°
2026-04-28 14:38 34.84367 136.81215 21 ft 13 kts 227°
2026-04-28 14:38 34.84343 136.81113 21 ft 12 kts 257°
2026-04-28 14:39 34.84324 136.81011 22 ft 13 kts 258°
2026-04-28 14:39 34.84329 136.80903 23 ft 14 kts 315°
2026-04-28 14:39 34.84420 136.80874 21 ft 16 kts 348°
2026-04-28 14:39 34.84679 136.80813 23 ft 72 kts 349°
2026-04-28 14:40 34.85400 136.80639 22 ft 136 kts 348°
2026-04-28 14:40 34.86105 136.80484 135 ft 163 kts 348°
2026-04-28 14:40 34.87518 136.80091 1293 ft 157 kts 334°
2026-04-28 14:40 34.88432 136.79337 1942 ft 167 kts 317°
2026-04-28 14:41 34.89121 136.78053 2217 ft 197 kts 290°
2026-04-28 14:41 34.89221 136.76294 2418 ft 224 kts 261°
2026-04-28 14:41 34.88762 136.74381 2767 ft 243 kts 255°
2026-04-28 14:41 34.88244 136.72420 3651 ft 242 kts 253°
2026-04-28 14:42 34.87725 136.70469 4552 ft 243 kts 253°
2026-04-28 14:42 34.87203 136.68510 5398 ft 244 kts 253°
2026-04-28 14:42 34.86587 136.66578 6203 ft 248 kts 239°
2026-04-28 14:42 34.85360 136.65085 7002 ft 255 kts 216°
2026-04-28 14:43 34.83703 136.64280 7824 ft 265 kts 194°
2026-04-28 14:43 34.81821 136.64300 8586 ft 271 kts 189°
2026-04-28 14:43 34.80036 136.63757 9352 ft 264 kts 202°
2026-04-28 14:43 34.78152 136.63713 10084 ft 286 kts 170°
2026-04-28 14:44 34.76348 136.64978 10455 ft 322 kts 142°
2026-04-28 14:44 34.74944 136.67285 10641 ft 353 kts 128°
2026-04-28 14:44 34.73453 136.69740 10790 ft 369 kts 138°
2026-04-28 14:44 34.71464 136.71752 10944 ft 377 kts 155°
2026-04-28 14:45 34.69067 136.73034 11305 ft 377 kts 170°
2026-04-28 14:45 34.66506 136.73603 11877 ft 372 kts 183°
2026-04-28 14:45 34.63973 136.73354 12517 ft 363 kts 198°
2026-04-28 14:45 34.61542 136.72554 13193 ft 362 kts 202°
2026-04-28 14:46 34.59106 136.71686 13808 ft 367 kts 202°
2026-04-28 14:46 34.56646 136.70830 14379 ft 370 kts 202°
2026-04-28 14:46 34.54150 136.69995 15001 ft 373 kts 201°
2026-04-28 14:46 34.51638 136.69180 15627 ft 375 kts 201°
2026-04-28 14:47 34.49107 136.68367 16224 ft 378 kts 202°
2026-04-28 14:47 34.46586 136.67559 16780 ft 381 kts 202°
2026-04-28 14:47 34.44014 136.66733 17359 ft 384 kts 202°
2026-04-28 14:47 34.41427 136.65901 17914 ft 387 kts 202°
2026-04-28 14:48 34.38803 136.65055 18290 ft 392 kts 202°
2026-04-28 14:48 34.36164 136.64206 18769 ft 393 kts 202°
2026-04-28 14:48 34.33516 136.63356 19230 ft 395 kts 202°
2026-04-28 14:48 34.30850 136.62500 19669 ft 398 kts 202°
2026-04-28 14:49 34.28161 136.61635 20067 ft 401 kts 202°
2026-04-28 14:49 34.25457 136.60766 20514 ft 403 kts 202°
2026-04-28 14:49 34.22743 136.59896 20946 ft 405 kts 202°
2026-04-28 14:49 34.20027 136.58967 21329 ft 404 kts 207°
2026-04-28 14:50 34.17573 136.57419 21684 ft 395 kts 221°
2026-04-28 14:50 34.15480 136.55299 22099 ft 392 kts 226°
2026-04-28 14:50 34.13452 136.53081 22467 ft 395 kts 227°
2026-04-28 14:50 34.11423 136.50835 22818 ft 397 kts 227°
2026-04-28 14:51 34.09375 136.48574 23171 ft 400 kts 227°
2026-04-28 14:51 34.07312 136.46311 23514 ft 402 kts 226°
2026-04-28 14:51 34.05227 136.44038 23798 ft 405 kts 226°
2026-04-28 14:51 34.03132 136.41766 24093 ft 406 kts 226°
2026-04-28 14:52 34.01026 136.39490 24392 ft 408 kts 226°
2026-04-28 14:52 33.98905 136.37202 24673 ft 410 kts 226°
2026-04-28 14:52 33.96777 136.34909 24945 ft 411 kts 226°
2026-04-28 14:52 33.94638 136.32607 25219 ft 413 kts 226°
2026-04-28 14:53 33.92494 136.30301 25484 ft 415 kts 226°
2026-04-28 14:53 33.90338 136.27983 25752 ft 416 kts 226°
2026-04-28 14:53 33.88171 136.25656 26007 ft 418 kts 226°
2026-04-28 14:53 33.86000 136.23325 26259 ft 420 kts 226°
2026-04-28 14:54 33.83815 136.20981 26495 ft 422 kts 226°
2026-04-28 14:54 33.81620 136.18627 26738 ft 423 kts 226°
2026-04-28 14:54 33.79418 136.16269 26971 ft 425 kts 226°
2026-04-28 14:54 33.77207 136.13902 27202 ft 426 kts 226°
2026-04-28 14:55 33.75017 136.11559 27447 ft 428 kts 226°
2026-04-28 14:55 33.72766 136.09154 27780 ft 427 kts 226°
2026-04-28 14:55 33.70554 136.06793 28162 ft 425 kts 226°
2026-04-28 14:55 33.68377 136.04470 28541 ft 423 kts 226°
2026-04-28 14:56 33.66176 136.02123 28888 ft 423 kts 226°
2026-04-28 14:56 33.63980 135.99782 29217 ft 422 kts 226°
2026-04-28 14:56 33.61786 135.97444 29581 ft 422 kts 226°
2026-04-28 14:56 33.59592 135.95109 29981 ft 420 kts 226°
2026-04-28 14:57 33.57408 135.92785 30308 ft 420 kts 226°
2026-04-28 14:57 33.55932 135.91215 30522 ft 419 kts 226°
2026-04-28 14:57 33.53046 135.88149 30946 ft 418 kts 226°
2026-04-28 14:57 33.50870 135.85837 31276 ft 417 kts 226°
2026-04-28 14:58 33.48700 135.83536 31602 ft 417 kts 226°
2026-04-28 14:58 33.46567 135.81190 31914 ft 413 kts 232°
2026-04-28 14:58 33.44879 135.78445 32239 ft 407 kts 243°
2026-04-28 14:58 33.43749 135.75364 32561 ft 403 kts 253°
2026-04-28 14:59 33.42975 135.72133 32910 ft 402 kts 255°
2026-04-28 14:59 33.42252 135.68906 33200 ft 402 kts 255°
2026-04-28 14:59 33.41540 135.65714 33473 ft 402 kts 255°
2026-04-28 14:59 33.40807 135.62486 33793 ft 401 kts 255°
2026-04-28 15:00 33.40061 135.59266 33995 ft 402 kts 255°
2026-04-28 15:00 33.38542 135.52817 33988 ft 402 kts 255°
2026-04-28 15:01 33.37022 135.46404 33998 ft 400 kts 255°
2026-04-28 15:01 33.35455 135.40029 33997 ft 399 kts 253°
2026-04-28 15:02 33.33796 135.33702 33996 ft 398 kts 253°
2026-04-28 15:02 33.32138 135.27380 33996 ft 398 kts 253°
2026-04-28 15:03 33.30492 135.21077 34001 ft 398 kts 253°
2026-04-28 15:03 33.28852 135.14791 33994 ft 398 kts 253°
2026-04-28 15:04 33.27201 135.08477 33998 ft 398 kts 253°
2026-04-28 15:04 33.25544 135.02154 33994 ft 399 kts 253°
2026-04-28 15:05 33.23924 134.95799 33993 ft 399 kts 254°
2026-04-28 15:05 33.22399 134.89410 33992 ft 400 kts 255°
2026-04-28 15:06 33.20866 134.83009 33992 ft 400 kts 254°
2026-04-28 15:06 33.19332 134.76666 33991 ft 401 kts 254°
2026-04-28 15:07 33.17779 134.70273 33991 ft 401 kts 254°
2026-04-28 15:07 33.16222 134.63884 33988 ft 401 kts 254°
2026-04-28 15:08 33.14651 134.57494 33989 ft 401 kts 254°
2026-04-28 15:08 33.13071 134.51098 33992 ft 401 kts 254°
2026-04-28 15:09 33.11492 134.44711 33990 ft 401 kts 254°
2026-04-28 15:09 33.09920 134.38366 33992 ft 401 kts 254°
2026-04-28 15:10 33.08337 134.31987 33989 ft 401 kts 254°
2026-04-28 15:10 33.06750 134.25611 33994 ft 401 kts 254°
2026-04-28 15:11 33.05177 134.19227 33992 ft 401 kts 255°
2026-04-28 15:11 33.03633 134.12831 33991 ft 401 kts 255°
2026-04-28 15:12 33.02088 134.06437 33995 ft 402 kts 255°
2026-04-28 15:12 33.00534 134.00036 33996 ft 402 kts 255°
2026-04-28 15:13 32.98973 133.93632 33993 ft 403 kts 255°
2026-04-28 15:13 32.97409 133.87229 33993 ft 403 kts 255°
2026-04-28 15:14 32.95847 133.80853 33994 ft 403 kts 255°
2026-04-28 15:14 32.94272 133.74437 33998 ft 404 kts 255°
2026-04-28 15:15 32.92694 133.68022 33997 ft 404 kts 255°
2026-04-28 15:15 32.91111 133.61601 33999 ft 405 kts 255°
2026-04-28 15:16 32.89520 133.55171 33996 ft 405 kts 255°
2026-04-28 15:16 32.87921 133.48743 34001 ft 405 kts 255°
2026-04-28 15:17 32.86318 133.42319 34000 ft 405 kts 255°
2026-04-28 15:17 32.84983 133.36978 33999 ft 406 kts 255°
2026-04-28 15:18 32.83374 133.30548 34004 ft 406 kts 255°
2026-04-28 15:18 32.81499 133.23076 34003 ft 406 kts 255°
2026-04-28 15:19 32.80144 133.17690 34005 ft 406 kts 254°
2026-04-28 15:19 32.78536 133.11311 34008 ft 406 kts 254°
2026-04-28 15:20 32.76913 133.04888 34006 ft 406 kts 254°
2026-04-28 15:20 32.75019 132.98573 34015 ft 408 kts 246°
2026-04-28 15:21 32.72113 132.92762 34004 ft 410 kts 241°
2026-04-28 15:21 32.69131 132.86998 34005 ft 410 kts 242°
2026-04-28 15:22 32.66163 132.81223 34008 ft 410 kts 242°
2026-04-28 15:22 32.63201 132.75444 34003 ft 410 kts 242°
2026-04-28 15:23 32.60258 132.69706 34009 ft 410 kts 242°
2026-04-28 15:23 32.57294 132.63935 34007 ft 410 kts 242°
2026-04-28 15:24 32.54323 132.58158 34008 ft 410 kts 242°
2026-04-28 15:24 32.51344 132.52376 34008 ft 411 kts 242°
2026-04-28 15:25 32.48344 132.46560 33327 ft 417 kts 241°
2026-04-28 15:25 32.46835 132.43639 32646 ft 415 kts 241°
2026-04-28 15:25 32.45326 132.40723 31912 ft 415 kts 241°
2026-04-28 15:25 32.43815 132.37802 31156 ft 416 kts 241°
2026-04-28 15:26 32.42300 132.34877 30457 ft 416 kts 240°
2026-04-28 15:26 32.40794 132.31970 29858 ft 412 kts 240°
2026-04-28 15:26 32.39302 132.29093 29221 ft 408 kts 240°
2026-04-28 15:26 32.37828 132.26254 28637 ft 402 kts 240°
2026-04-28 15:27 32.36391 132.23489 28075 ft 397 kts 240°
2026-04-28 15:27 32.34953 132.20723 27523 ft 393 kts 240°
2026-04-28 15:27 32.33529 132.17988 26973 ft 388 kts 240°
2026-04-28 15:27 32.32119 132.15279 26430 ft 384 kts 240°
2026-04-28 15:28 32.30724 132.12602 25893 ft 381 kts 240°
2026-04-28 15:28 32.29342 132.09949 25363 ft 377 kts 240°
2026-04-28 15:28 32.27971 132.07318 24830 ft 374 kts 240°
2026-04-28 15:28 32.26608 132.04706 24286 ft 372 kts 240°
2026-04-28 15:29 32.25252 132.02108 23746 ft 370 kts 240°
2026-04-28 15:29 32.23904 131.99526 23139 ft 368 kts 240°
2026-04-28 15:29 32.22562 131.96959 22575 ft 365 kts 240°
2026-04-28 15:29 32.21238 131.94427 22040 ft 361 kts 240°
2026-04-28 15:30 32.19924 131.91918 21517 ft 357 kts 240°
2026-04-28 15:30 32.18626 131.89437 21002 ft 353 kts 240°
2026-04-28 15:30 32.17341 131.86985 20501 ft 350 kts 240°
2026-04-28 15:30 32.16066 131.84555 19998 ft 347 kts 240°
2026-04-28 15:31 32.14802 131.82148 19512 ft 344 kts 240°
2026-04-28 15:31 32.13551 131.79765 19034 ft 341 kts 240°
2026-04-28 15:31 32.12308 131.77398 18552 ft 338 kts 240°
2026-04-28 15:31 32.11074 131.75050 18014 ft 336 kts 240°
2026-04-28 15:32 32.09846 131.72713 17475 ft 333 kts 240°
2026-04-28 15:32 32.08630 131.70402 16958 ft 330 kts 240°
2026-04-28 15:32 32.07425 131.68112 16466 ft 327 kts 240°
2026-04-28 15:32 32.06230 131.65843 15991 ft 324 kts 240°
2026-04-28 15:33 32.05044 131.63591 15501 ft 322 kts 240°
2026-04-28 15:33 32.03869 131.61362 15051 ft 319 kts 240°
2026-04-28 15:33 32.02703 131.59150 14584 ft 317 kts 240°
2026-04-28 15:33 32.01544 131.56952 14125 ft 315 kts 240°
2026-04-28 15:34 32.00391 131.54768 13653 ft 313 kts 240°
2026-04-28 15:34 31.99243 131.52593 13152 ft 312 kts 240°
2026-04-28 15:34 31.98102 131.50432 12677 ft 310 kts 240°
2026-04-28 15:34 31.96965 131.48283 12213 ft 308 kts 240°
2026-04-28 15:35 31.95833 131.46143 11717 ft 308 kts 240°
2026-04-28 15:35 31.93588 131.41916 10930 ft 303 kts 239°
2026-04-28 15:35 31.92472 131.39825 10722 ft 298 kts 239°
2026-04-28 15:36 31.91375 131.37772 10579 ft 294 kts 239°
2026-04-28 15:36 31.90288 131.35736 10461 ft 295 kts 239°
2026-04-28 15:36 31.89202 131.33704 10328 ft 288 kts 239°
2026-04-28 15:36 31.88168 131.31771 10195 ft 271 kts 239°
2026-04-28 15:37 31.87190 131.29944 10081 ft 259 kts 239°
2026-04-28 15:37 31.86246 131.28179 9981 ft 251 kts 239°
2026-04-28 15:37 31.85327 131.26460 9751 ft 248 kts 239°
2026-04-28 15:37 31.84411 131.24747 9488 ft 247 kts 239°
2026-04-28 15:38 31.83498 131.23040 9209 ft 246 kts 240°
2026-04-28 15:38 31.82588 131.21340 8933 ft 245 kts 240°
2026-04-28 15:38 31.81677 131.19641 8658 ft 245 kts 240°
2026-04-28 15:38 31.80771 131.17949 8381 ft 245 kts 239°
2026-04-28 15:39 31.79875 131.16278 8107 ft 245 kts 240°
2026-04-28 15:39 31.78968 131.14586 7831 ft 245 kts 240°
2026-04-28 15:39 31.78060 131.12894 7558 ft 245 kts 240°
2026-04-28 15:39 31.77150 131.11201 7283 ft 245 kts 240°
2026-04-28 15:40 31.76241 131.09511 7009 ft 245 kts 240°
2026-04-28 15:40 31.75333 131.07822 6738 ft 245 kts 240°
2026-04-28 15:40 31.74425 131.06130 6467 ft 245 kts 240°
2026-04-28 15:40 31.73516 131.04437 6173 ft 245 kts 240°
2026-04-28 15:41 31.72608 131.02747 5891 ft 244 kts 240°
2026-04-28 15:41 31.71702 131.01061 5615 ft 244 kts 240°
2026-04-28 15:41 31.70801 130.99383 5348 ft 243 kts 240°
2026-04-28 15:41 31.69898 130.97704 5080 ft 243 kts 240°
2026-04-28 15:42 31.68998 130.96029 4817 ft 242 kts 240°
2026-04-28 15:42 31.68107 130.94376 4673 ft 236 kts 240°
2026-04-28 15:42 31.67244 130.92772 4557 ft 229 kts 242°
2026-04-28 15:42 31.66693 130.91085 4436 ft 216 kts 261°
2026-04-28 15:43 31.66405 130.89411 4372 ft 202 kts 260°
2026-04-28 15:43 31.66124 130.87842 4257 ft 190 kts 261°
2026-04-28 15:43 31.65994 130.86308 4165 ft 189 kts 283°
2026-04-28 15:43 31.66416 130.84843 4006 ft 190 kts 290°
2026-04-28 15:44 31.66850 130.83403 3817 ft 184 kts 289°
2026-04-28 15:44 31.67270 130.82004 3623 ft 179 kts 290°
2026-04-28 15:44 31.67736 130.80686 3385 ft 172 kts 307°
2026-04-28 15:44 31.68692 130.79930 3249 ft 166 kts 331°
2026-04-28 15:45 31.69656 130.79248 3058 ft 156 kts 325°
2026-04-28 15:45 31.70557 130.78599 2827 ft 146 kts 327°
2026-04-28 15:45 31.71445 130.77986 2643 ft 151 kts 328°
2026-04-28 15:45 31.72353 130.77367 2436 ft 150 kts 328°
2026-04-28 15:46 31.73262 130.76753 2231 ft 151 kts 329°
2026-04-28 15:46 31.74173 130.76129 2051 ft 151 kts 328°
2026-04-28 15:46 31.75084 130.75512 1817 ft 150 kts 329°
2026-04-28 15:46 31.75970 130.74906 1595 ft 149 kts 328°
2026-04-28 15:47 31.76859 130.74293 1425 ft 148 kts 328°
2026-04-28 15:47 31.77742 130.73674 1235 ft 147 kts 328°
2026-04-28 15:47 31.78647 130.73079 1012 ft 150 kts 328°
2026-04-28 15:47 31.79561 130.72459 876 ft 150 kts 329°
2026-04-28 15:48 31.80365 130.71918 894 ft 112 kts 330°
2026-04-28 15:48 31.80910 130.71552 904 ft 66 kts 330°
2026-04-28 15:48 31.81241 130.71329 912 ft 49 kts 331°
2026-04-28 15:48 31.81445 130.71178 914 ft 23 kts 314°
2026-04-28 15:49 31.81466 130.71036 916 ft 19 kts 236°
2026-04-28 15:49 31.81353 130.71025 913 ft 18 kts 158°
2026-04-28 15:49 31.81249 130.71100 911 ft 17 kts 150°
2026-04-28 15:49 31.81146 130.71169 910 ft 17 kts 150°
2026-04-28 15:50 31.81046 130.71236 907 ft 17 kts 150°
2026-04-28 15:50 31.80938 130.71308 908 ft 19 kts 149°
2026-04-28 15:50 31.80818 130.71390 905 ft 20 kts 151°
2026-04-28 15:50 31.80695 130.71472 900 ft 20 kts 150°
2026-04-28 15:51 31.80575 130.71553 897 ft 20 kts 149°
2026-04-28 15:51 31.80459 130.71631 895 ft 19 kts 151°
2026-04-28 15:51 31.80347 130.71707 893 ft 18 kts 150°
2026-04-28 15:51 31.80271 130.71732 892 ft 7 kts 224°
2026-04-28 15:52 31.80242 130.71679 892 ft 8 kts 240°
2026-04-28 15:52 31.80215 130.71619 892 ft 8 kts 242°
2026-04-28 15:52 31.80210 130.71609 892 ft 0 kts 242°